Weather History for Skagway, AK

Change the Weather History Date:

Monday, July 1, 2013

  Actual Average Record
Temperature  
Mean Temperature 56 °F -  
Max Temperature 61 °F 63 °F 79 °F (1990)
Min Temperature 51 °F 48 °F 43 °F (2000)
Degree Days  
Heating Degree Days 9    
Growing Degree Days 6 (Base 50)    
Moisture  
Dew Point 51 °F    
Average Humidity 80    
Maximum Humidity 94    
Minimum Humidity 63    
Precipitation  
Precipitation 0.12 in - - ()
Sea Level Pressure  
Sea Level Pressure 29.89 in    
Wind  
Wind Speed 7 mph (SSW)    
Max Wind Speed 23 mph    
Max Gust Speed 33 mph    
Visibility 10 miles    
Events Rain    
Averages and records for this station are not official NWS values.
T = Trace of Precipitation, MM = Missing Value Source: NWS Daily Summary

Daily Weather History Graph

Daily Weather History Graph

Search for Another Location

Airport:

Trip Planner

Search our weather history database for the weather conditions in past years. The results will help you decide how hot, cold, wet, or windy it might be!

Date:

Astronomy

Jul. 01, 2013 Rise Set
Actual Time 3:49 AM AKDT 10:20 PM AKDT
Civil Twilight 2:20 AM AKDT 11:47 PM AKDT
Nautical Twilight Sun does not rise Sun does not rise
Astronomical Twilight Sun does not rise Sun does not rise
Moon 12:30 AM AKDT (7/1) 3:46 PM AKDT (7/1)
Length of Visible Light 21h 26m
Length of Day
18h 30m
Waning Crescent, 34% of the Moon is Illuminated
Jul 1
Waning Crescent
Jul 7
New
Jul 15
First Quarter
Jul 22
Full
Jul 29
Last Quarter

Hourly Weather History & Observations

Time (AKDT) Temp. Dew Point Humidity Pressure Visibility Wind Dir Wind Speed Gust Speed Precip Events Conditions
12:53 AM 57.0 °F 48.9 °F 74% 29.96 in 10.0 mi Calm Calm - N/A   Clear
1:53 AM 55.0 °F 48.0 °F 77% 29.95 in 10.0 mi Calm Calm - N/A   Clear
2:53 AM 54.0 °F 48.0 °F 80% 29.94 in 10.0 mi Calm Calm - N/A   Mostly Cloudy
3:53 AM 54.0 °F 48.0 °F 80% 29.94 in 10.0 mi Calm Calm - N/A   Overcast
4:53 AM 54.0 °F 48.0 °F 80% 29.90 in 10.0 mi Calm Calm - N/A   Scattered Clouds
5:53 AM 54.0 °F 48.9 °F 83% 29.89 in 10.0 mi SSW 3.5 mph - 0.00 in   Mostly Cloudy
6:53 AM 51.1 °F 46.0 °F 83% 29.91 in 10.0 mi SW 6.9 mph - N/A   Mostly Cloudy
7:51 AM 60.8 °F 48.2 °F 63% 29.87 in 10.0 mi SSW 12.7 mph 19.6 mph N/A   Overcast
7:53 AM 60.1 °F 48.9 °F 67% 29.87 in 10.0 mi SSW 12.7 mph 18.4 mph N/A   Overcast
8:53 AM 57.9 °F 53.1 °F 84% 29.89 in 10.0 mi Variable 3.5 mph - 0.01 in Rain Light Rain
9:25 AM 55.4 °F 51.8 °F 88% 29.89 in 10.0 mi SSW 9.2 mph - 0.00 in   Overcast
9:49 AM 55.4 °F 51.8 °F 88% 29.90 in 7.0 mi WSW 11.5 mph - 0.04 in Rain Light Rain
9:53 AM 55.0 °F 51.1 °F 86% 29.90 in 9.0 mi WSW 10.4 mph - 0.04 in Rain Light Rain
10:53 AM 57.9 °F 55.0 °F 90% 29.89 in 10.0 mi Calm Calm - 0.01 in Rain Light Rain
11:01 AM 57.2 °F 55.4 °F 94% 29.88 in 10.0 mi Calm Calm - 0.00 in Rain Light Rain
11:41 AM 57.2 °F 53.6 °F 88% 29.88 in 8.0 mi Variable 6.9 mph - 0.01 in Rain Light Rain
11:53 AM 57.9 °F 54.0 °F 87% 29.88 in 10.0 mi SW 4.6 mph - 0.01 in Rain Light Rain
12:53 PM 60.1 °F 54.0 °F 80% 29.87 in 10.0 mi SSW 17.3 mph 24.2 mph 0.01 in   Overcast
1:53 PM 60.1 °F 53.1 °F 78% 29.88 in 10.0 mi SSW 16.1 mph 26.5 mph 0.00 in Rain Light Rain
2:53 PM 61.0 °F 53.1 °F 75% 29.88 in 10.0 mi SSW 16.1 mph 24.2 mph 0.02 in   Overcast
3:53 PM 60.1 °F 53.1 °F 78% 29.88 in 10.0 mi SSW 18.4 mph 25.3 mph 0.00 in Rain Light Rain
4:53 PM 60.1 °F 52.0 °F 75% 29.88 in 10.0 mi SSW 17.3 mph 24.2 mph 0.02 in Rain Light Rain
5:53 PM 60.1 °F 52.0 °F 75% 29.88 in 10.0 mi SSW 16.1 mph 25.3 mph 0.00 in   Overcast
6:53 PM 60.1 °F 51.1 °F 72% 29.87 in 10.0 mi SSW 20.7 mph - N/A   Overcast
7:53 PM 59.0 °F 51.1 °F 75% 29.87 in 10.0 mi SSW 18.4 mph 25.3 mph N/A   Overcast
8:53 PM 59.0 °F 51.1 °F 75% 29.87 in 10.0 mi SSW 18.4 mph 26.5 mph N/A   Overcast
9:53 PM 57.9 °F 51.1 °F 78% 29.88 in 10.0 mi SSW 19.6 mph - N/A   Overcast
10:53 PM 57.0 °F 51.1 °F 81% 29.88 in 10.0 mi SSW 21.9 mph 29.9 mph N/A   Overcast
11:53 PM 57.0 °F 50.0 °F 77% 29.88 in 10.0 mi SSW 23.0 mph 33.4 mph N/A   Overcast